This demonstration page uses our WeatherBlox Daily Observations layout. Learn more.

38.88101, -77.10428

Hourly Observations for March 11, 2016

Temp ( °F °C ) Dew Point ( °F °C ) Humidity (%) Winds ( mph kmh ) Pressure ( in mb ) Visibility ( mi km ) Precip ( " mm )
12:52 am 00:52 Cloudy 71 21.7 55 12.8 57 57 SW 10 17 29.94 1014 10 16.09344 0 0
1:52 am 01:52 Cloudy 69 20.6 55 12.8 61 61 SW 7 11 29.94 1014 10 16.09344 0 0
2:52 am 02:52 Cloudy with Light Rain 69 20.6 56 13.3 63 63 NNW 7 11 29.94 1014 10 16.09344 0.001 0.001
3:52 am 03:52 Cloudy 70 21.1 55 12.8 59 59 WNW 10 17 29.97 1015 10 16.09344 0.001 0.001
4:52 am 04:52 Cloudy 68 20 55 12.8 63 63 W 5 7 29.97 1015 10 16.09344 0 0
5:52 am 05:52 Cloudy 67 19.4 55 12.8 66 66 N 21 33 30.03 1017 10 16.09344 0 0
6:14 am 06:14 Cloudy 64 18 52 11 64 64 N 20 31 30.09 1019 10 16.09344 0 0
6:52 am 06:52 Cloudy 62 16.7 50 10 65 65 N 22 35 30.09 1019 10 16.09344 0 0
7:52 am 07:52 Mostly Cloudy 61 16.1 50 10 67 67 NE 6 9 30.12 1020 10 16.09344 0 0
8:52 am 08:52 Mostly Cloudy 62 16.7 51 10.6 67 67 N 12 19 30.18 1022 10 16.09344 0 0
9:52 am 09:52 Mostly Cloudy 63 17.2 50 10 63 63 N 9 15 30.18 1022 10 16.09344 0 0
10:52 am 10:52 Mostly Cloudy 65 18.3 51 10.6 61 61 NNW 8 13 30.18 1022 10 16.09344 0 0
11:52 am 11:52 Mostly Cloudy 68 20 51 10.6 55 55 NNW 10 17 30.21 1023 10 16.09344 0 0
12:52 pm 12:52 Mostly Cloudy 70 21.1 50 10 49 49 NNE 9 15 30.18 1022 10 16.09344 0 0
1:52 pm 13:52 Mostly Cloudy 70 21.1 48 8.9 46 46 WNW 8 13 30.18 1022 10 16.09344 0 0
2:52 pm 14:52 Mostly Cloudy 73 22.8 48 8.9 41 41 NW 7 11 30.18 1022 10 16.09344 0 0
3:52 pm 15:52 Mostly Cloudy 73 22.8 44 6.7 35 35 NNW 13 20 30.18 1022 10 16.09344 0 0
4:52 pm 16:52 Mostly Cloudy 71 21.7 42 5.6 35 35 NNW 10 17 30.21 1023 10 16.09344 0 0
5:52 pm 17:52 Mostly Cloudy 69 20.6 42 5.6 38 38 NW 12 19 30.24 1024 10 16.09344 0 0
6:52 pm 18:52 Mostly Cloudy 68 20 38 3.3 33 33 NW 9 15 30.27 1025 10 16.09344 0 0
7:52 pm 19:52 Mostly Cloudy 64 17.8 40 4.4 41 41 N 3 6 30.27 1025 10 16.09344 0 0
8:52 pm 20:52 Mostly Cloudy 62 16.7 39 3.9 43 43 ENE 13 20 30.3 1026 10 16.09344 0 0
9:52 pm 21:52 Mostly Cloudy 59 15 41 5 51 51 ENE 6 9 30.3 1026 10 16.09344 0 0
10:52 pm 22:52 Partly Cloudy 57 13.9 37 2.8 47 47 Calm 30.33 1027 10 16.09344 0 0
11:52 pm 23:52 Mostly Clear 58 14.4 35 1.7 42 42 ENE 3 6 30.33 1027 10 16.09344 0 0

Powered by AerisWeather